Location: Betz
(49.1556°N, 2.9558°E)
Time: 02:27:49
(UTC+00:00)

In-Cosmos 22 - Pass Details

Date: 18 September 2019
Orbit: 785 x 877 km, 81.2° (Epoch: 15 October)

Event Time Altitude Azimuth Distance (km) Brightness Sun altitude
Rises 19:40:11 0° 347° (NNW) 3,301 7.8 -17.4°
Reaches altitude 10° 19:42:33 10° 347° (NNW) 2,374 7.1 -17.7°
Maximum altitude 19:47:54 82° 260° (W) 819 4.1 -18.5°
Enters shadow 19:52:33 14° 174° (S) 2,105 6.0 -19.2°
